Location: Newark
(45.0500°N, 41.9667°E)
Time: 03:37:48
(UTC+00:00)

Starlink (trailer) - Pass Details

Date: 30 July 2019
Orbit: 549 x 550 km, 53.0° (Epoch: 20 August)

Event Time Altitude Azimuth Distance (km) Brightness Sun altitude
Rises 22:11:02 0° 294° (WNW) 2,721 7.3 -25.4°
Reaches altitude 10° 22:13:32 10° 306° (NW) 1,827 6.5 -25.3°
Maximum altitude 22:17:07 27° 6° (N) 1,067 5.7 -25.2°
Drops below altitude 10° 22:20:43 10° 66° (ENE) 1,826 6.8 -25.0°
Sets 22:23:12 0° 78° (ENE) 2,720 7.5 -24.9°
